Location: ?????????
(53.2086°N, 54.0693°E)
Time: 14:11:51
(UTC+00:00)

Cosmos 2360 Rocket - Pass Details

Date: 08 December 2019
Orbit: 833 x 846 km, 71.0° (Epoch: 26 January)

Event Time Altitude Azimuth Distance (km) Brightness Sun altitude
Rises 16:05:01 0° 285° (WNW) 3,407 6.4 -34.3°
Reaches altitude 10° 16:08:37 10° 308° (NW) 2,476 5.2 -34.8°
Maximum altitude 16:11:50 15° 343° (NNW) 2,132 4.5 -35.3°
Enters shadow 16:12:09 15° 347° (NNW) 2,136 4.5 -35.3°
